Home > Weather > San Antonio > Past weeks

Flag for U.S.A. Weather for the Past 2 Weeks in San Antonio, Texas, U.S.A.

Now
68 °F

Mostly cloudy.


Feels Like: 68 °F
Forecast: 53 / 76 °F
Wind: 12 mph from South

Location: San Antonio International Airport

Current Time: Feb 14, 2016 at 1:59:58 PM

Latest Report: Feb 14, 2016 at 12:51 PM


Visibility: 10 mi

Pressure: 29.91 "Hg

Humidity: 68%

Dew point: 57 °F

Location of San AntonioLocation

Historic Weather in San Antonio — Graph

°F

San Antonio Temperature Yesterday

Maximum temperature yesterday: 74 °F (at 3:51 PM)
Minimum temperature yesterday: 48 °F (at 6:51 AM)
Average temperature yesterday: 61 °F

High & Low Weather Summary for the Past Weeks

 TemperatureHumidityPressure
High83 °F (Jan 31, 4:51 PM)100% (Feb 1, 7:51 AM)30.49 "Hg (Feb 1, 7:51 AM)
Low31 °F (Feb 7, 6:51 AM)16% (Feb 8, 11:51 AM)29.49 "Hg (Feb 1, 7:51 PM)
Average56 °F51%30.13 "Hg
* Reported Jan 30 11:51 AM — Feb 14 11:51 AM, San Antonio, Weather by CustomWeather, © 2016

Note: Actual official high and low records may vary slightly from our data, if they occured in-between our weather recording intervals... More about our weather records

Advertising

San Antonio Weather History for the Previous 24 Hours

 ConditionsComfort  
Time TempWeatherWind HumidityBarometerVisibility
11:51 AM
Sun, Feb 14
65 °FOvercast.13 mph76%29.95 "Hg10 mi
10:51 AM62 °FOvercast.14 mph80%29.98 "Hg10 mi
9:51 AM59 °FLow clouds.12 mph90%29.99 "Hg10 mi
8:51 AM58 °FFog.14 mph93%29.99 "Hg1 mi
7:51 AM57 °FFog.8 mph93%29.99 "Hg1 mi
6:51 AM56 °FLow clouds.8 mph97%30.00 "Hg10 mi
5:51 AM55 °FLow clouds.3 mph93%30.00 "Hg10 mi
4:51 AM54 °FPassing clouds.5 mph93%30.01 "Hg10 mi
3:51 AM55 °FPassing clouds.7 mph93%30.02 "Hg10 mi
2:51 AM55 °FPassing clouds.8 mph93%30.04 "Hg10 mi
1:51 AM56 °FPassing clouds.8 mph90%30.06 "Hg10 mi
12:51 AM56 °FPassing clouds.7 mph87%30.07 "Hg10 mi
11:51 PM
Sat, Feb 13
58 °FPassing clouds.8 mph81%30.10 "Hg10 mi
10:51 PM59 °FPassing clouds.10 mph78%30.12 "Hg10 mi
9:51 PM61 °FPassing clouds.15 mph72%30.13 "Hg10 mi
8:51 PM63 °FPassing clouds.16 mph68%30.13 "Hg10 mi
7:51 PM66 °FPassing clouds.15 mph56%30.12 "Hg10 mi
6:51 PM67 °FPassing clouds.12 mph53%30.12 "Hg10 mi
5:51 PM71 °FPassing clouds.15 mph45%30.12 "Hg10 mi
4:51 PM73 °FPassing clouds.15 mph46%30.13 "Hg10 mi
3:51 PM74 °FPassing clouds.12 mph45%30.15 "Hg10 mi
2:51 PM73 °FPassing clouds.9 mph48%30.18 "Hg10 mi
1:51 PM71 °FPassing clouds.9 mph53%30.22 "Hg10 mi
Weather by CustomWeather, © 2016

See weather overviewHow to use our weather pages